Stations météo

réclame
Mon MeteoGroup
Braemar, Grande-Bretagne (99089): Température de l'air & dewpoint: 14.06.2019 23:00:00 - 20.06.2019 23:00:00 (BST)Braemar, Grande-Bretagne (99089): Température de l'air -20cm & Température de l'air -100cm: 14.06.2019 23:00:00 - 20.06.2019 23:00:00 (BST)Braemar, Grande-Bretagne (99089): Quantités de précipitations: 14.06.2019 23:00:00 - 20.06.2019 23:00:00 (BST)
Date & Time tt [°C] td [°C] tt -20cm [°C] tt -100cm [°C] rr [mm]
20.06.2019 23:00:00 6,9 5,1 - - 0,0
20.06.2019 22:00:00 8,9 5,0 - - 0,0
20.06.2019 21:00:00 9,2 5,5 - - 0,0
20.06.2019 20:00:00 10,8 5,4 - - 0,0
20.06.2019 19:00:00 11,7 5,1 - - 0,0
20.06.2019 18:00:00 13,1 6,7 - - 0,0
20.06.2019 17:00:00 12,3 5,2 - - 0,0
20.06.2019 16:00:00 12,9 6,5 - - 0,0
20.06.2019 15:00:00 10,3 7,5 - - 0,6
20.06.2019 14:00:00 12,9 7,0 - - 0,0
20.06.2019 13:00:00 12,7 6,0 - - 0,0
20.06.2019 12:00:00 12,4 6,8 - - 0,0
20.06.2019 11:00:00 12,5 6,1 - - 0,0
20.06.2019 10:00:00 11,0 5,8 12,2 10,7 0,0
20.06.2019 09:00:00 9,9 5,7 - - 0,0
20.06.2019 08:00:00 9,1 6,3 - - 0,0
20.06.2019 07:00:00 7,7 6,9 - - 0,0
20.06.2019 06:00:00 7,2 6,7 - - 0,0
20.06.2019 05:00:00 7,1 6,5 - - 1,0
20.06.2019 04:00:00 7,8 6,9 - - 2,8
20.06.2019 03:00:00 8,5 7,5 - - 0,0
20.06.2019 02:00:00 8,6 7,1 - - 0,0
20.06.2019 01:00:00 8,9 6,9 - - 0,0
20.06.2019 00:00:00 9,7 6,4 - - 0,0
19.06.2019 23:00:00 10,2 6,6 - - 0,0
19.06.2019 22:00:00 10,5 7,0 - - 0,0
19.06.2019 21:00:00 11,2 6,9 - - 0,0
19.06.2019 20:00:00 11,8 7,5 - - 0,0
19.06.2019 19:00:00 13,4 8,2 - - 0,2
19.06.2019 18:00:00 13,5 8,9 - - 0,0
19.06.2019 17:00:00 12,4 8,9 - - 0,0
19.06.2019 16:00:00 12,5 9,3 - - 2,8
19.06.2019 15:00:00 13,7 7,9 - - 0,2
19.06.2019 14:00:00 14,6 7,0 - - 0,0
19.06.2019 13:00:00 15,0 7,0 - - 0,0
19.06.2019 12:00:00 13,7 6,0 - - 0,0
19.06.2019 11:00:00 14,6 6,1 - - 0,0
19.06.2019 10:00:00 13,8 6,9 12,2 10,7 0,0
19.06.2019 09:00:00 12,4 6,3 - - 0,0
19.06.2019 08:00:00 12,6 6,4 - - 0,0
19.06.2019 07:00:00 11,7 8,3 - - 0,0
19.06.2019 06:00:00 8,7 7,7 - - 0,0
19.06.2019 05:00:00 7,3 6,3 - - 0,0
19.06.2019 04:00:00 8,3 6,4 - - 0,0
19.06.2019 03:00:00 9,5 7,3 - - 0,0
19.06.2019 02:00:00 9,2 7,1 - - 0,0
19.06.2019 01:00:00 9,7 7,0 - - 0,0
19.06.2019 00:00:00 10,1 7,3 - - 0,0
18.06.2019 23:00:00 10,4 6,6 - - 0,0
18.06.2019 22:00:00 11,5 6,7 - - 0,0
18.06.2019 21:00:00 11,9 6,8 - - 0,0
18.06.2019 20:00:00 12,9 6,5 - - 0,0
18.06.2019 19:00:00 13,7 6,0 - - 0,0
18.06.2019 18:00:00 13,5 6,6 - - 0,0
18.06.2019 17:00:00 14,8 6,7 - - 0,0
18.06.2019 16:00:00 14,7 7,0 - - 0,0
18.06.2019 15:00:00 12,5 9,1 - - 0,0
18.06.2019 14:00:00 14,9 7,5 - - 0,0
18.06.2019 13:00:00 14,5 7,6 - - 0,0
18.06.2019 12:00:00 12,3 7,8 - - 0,0
18.06.2019 11:00:00 12,3 6,8 - - 0,0
18.06.2019 10:00:00 12,2 6,6 12,0 10,5 0,0
18.06.2019 09:00:00 12,7 5,0 - - 0,0
18.06.2019 08:00:00 12,0 6,6 - - 0,0
18.06.2019 07:00:00 11,2 6,2 - - 0,0
18.06.2019 06:00:00 9,9 6,0 - - 0,0
18.06.2019 05:00:00 8,3 7,5 - - 0,0
18.06.2019 04:00:00 6,0 5,6 - - 0,2
18.06.2019 03:00:00 5,1 4,7 - - 0,0
18.06.2019 02:00:00 4,4 3,4 - - 0,0
18.06.2019 01:00:00 6,7 4,4 - - 0,0
18.06.2019 00:00:00 8,5 4,5 - - 0,0
17.06.2019 23:00:00 9,5 5,4 - - 0,0
17.06.2019 22:00:00 10,4 5,3 - - 0,0
17.06.2019 21:00:00 10,8 5,4 - - 0,0
17.06.2019 20:00:00 12,0 5,3 - - 0,0
17.06.2019 19:00:00 12,5 6,6 - - 0,0
17.06.2019 18:00:00 12,3 8,0 - - 0,0
17.06.2019 17:00:00 11,6 8,7 - - 0,4
17.06.2019 16:00:00 13,9 7,6 - - 0,2
17.06.2019 15:00:00 15,2 6,6 - - 0,0
17.06.2019 14:00:00 15,5 7,5 - - 0,0
17.06.2019 13:00:00 15,1 7,9 - - 0,0
17.06.2019 12:00:00 13,4 8,0 - - 0,0
17.06.2019 11:00:00 13,2 7,6 - - 0,0
17.06.2019 10:00:00 12,3 6,6 11,7 10,2 0,0
17.06.2019 09:00:00 11,6 6,1 - - 0,0
17.06.2019 08:00:00 10,3 7,3 - - 0,0
17.06.2019 07:00:00 10,4 7,2 - - 0,0
17.06.2019 06:00:00 9,9 7,8 - - 0,2
17.06.2019 05:00:00 9,6 7,6 - - 0,0
17.06.2019 04:00:00 8,5 7,4 - - 1,0
17.06.2019 03:00:00 9,0 8,7 - - 1,0
17.06.2019 02:00:00 8,8 8,3 - - 2,0
17.06.2019 01:00:00 9,8 7,4 - - 0,0
17.06.2019 00:00:00 10,1 6,8 - - 0,0
16.06.2019 23:00:00 10,6 7,0 - - 0,0
16.06.2019 22:00:00 10,7 7,1 - - 0,0
16.06.2019 21:00:00 10,1 6,8 - - 0,0
16.06.2019 20:00:00 10,8 6,9 - - 0,0
16.06.2019 19:00:00 11,0 5,8 - - 0,0
16.06.2019 18:00:00 10,9 5,8 - - 0,0
16.06.2019 17:00:00 11,4 6,6 - - 0,0
16.06.2019 16:00:00 10,2 6,5 - - 0,4
16.06.2019 15:00:00 11,4 5,5 - - 0,0
16.06.2019 14:00:00 13,9 6,7 - - 0,0
16.06.2019 13:00:00 11,5 6,0 - - 0,0
16.06.2019 12:00:00 13,3 6,9 - - 0,0
16.06.2019 11:00:00 12,9 6,4 - - 0,0
16.06.2019 10:00:00 12,4 7,1 11,7 10,2 0,0
16.06.2019 09:00:00 11,2 5,7 - - 0,0
16.06.2019 08:00:00 10,1 6,3 - - 0,0
16.06.2019 07:00:00 9,7 6,5 - - 0,0
16.06.2019 06:00:00 6,1 4,9 - - 0,0
16.06.2019 05:00:00 6,1 5,0 - - 0,0
16.06.2019 04:00:00 8,6 5,8 - - 0,0
16.06.2019 03:00:00 9,0 5,8 - - 0,0
16.06.2019 02:00:00 10,1 6,5 - - 0,0
16.06.2019 01:00:00 10,2 7,3 - - 0,0
16.06.2019 00:00:00 10,6 8,1 - - 0,0
15.06.2019 23:00:00 11,1 7,9 - - 0,0
15.06.2019 22:00:00 12,0 7,6 - - 0,0
15.06.2019 21:00:00 12,9 8,3 - - 0,0
15.06.2019 20:00:00 13,9 7,9 - - 0,0
15.06.2019 19:00:00 14,8 7,3 - - 0,0
15.06.2019 18:00:00 14,1 7,2 - - 0,0
15.06.2019 17:00:00 14,7 7,0 - - 0,0
15.06.2019 16:00:00 15,5 8,1 - - 0,0
15.06.2019 15:00:00 15,3 7,7 - - 0,0
15.06.2019 14:00:00 15,6 8,8 - - 0,0
15.06.2019 13:00:00 13,7 7,8 - - 0,0
15.06.2019 12:00:00 13,7 7,7 - - 0,0
15.06.2019 11:00:00 14,6 9,4 - - 0,0
15.06.2019 10:00:00 12,4 9,3 10,9 10,2 0,0
15.06.2019 09:00:00 10,9 9,1 - - 0,0
15.06.2019 08:00:00 10,0 8,2 - - 0,0
15.06.2019 07:00:00 9,3 7,7 - - 0,0
15.06.2019 06:00:00 8,8 6,9 - - 0,0
15.06.2019 05:00:00 8,8 6,5 - - 0,0
15.06.2019 04:00:00 8,2 6,8 - - 0,0
15.06.2019 03:00:00 8,5 6,5 - - 0,0
15.06.2019 02:00:00 8,3 6,1 - - 0,0
15.06.2019 01:00:00 9,0 5,7 - - 0,0
15.06.2019 00:00:00 8,4 6,3 - - 0,0
14.06.2019 23:00:00 8,8 6,8 - - 0,0

tt = Température de l'air
td = dewpoint
tt -20cm = Température de l'air -20cm
tt -100cm = Température de l'air -100cm
rr = Quantités de précipitations

stations d'obs. à proximité